Regional Weather Roundup
Issued by NWS Sterling, VA

Home | Current Version | Previous Version | Graphics & Text | Print | Product List | Glossary On
Versions: 1 2 3 4 5 6 7 8 9 10 11 12 13 14 15 16 17 18 19 20 21 22 23 24 25 26 27 28 29 30 31 32 33 34 35 36 37 38 39 40 41 42 43 44 45 46 47 48 49 50
000
ASUS41 KLWX 030110
RWRLWX

REGIONAL WEATHER ROUNDUP
NATIONAL WEATHER SERVICE BALTIMORE MD/WASHINGTON DC
900 PM EDT SUN AUG 02 2015

Note: "FAIR" indicates few or no clouds below 12,000 feet
with no significant weather and/or obstructions to visibility.
 TC=TEMPERATURE CELSIUS

 * =Non NWS site. Station does not report precipitation (e.g. rain,
    snow, etc.), thunder, or fog.

DCZ001-MDZ009-015-VAZ040>042-051-053>054-030200-
WASHINGTON METRO

CITY           SKY/WX    TMP DP  RH WIND       PRES   REMARKS
WASHINGTON NAT PTCLDY    84  59  42 W9        29.92R
DULLES         PTCLDY    74  62  66 S5        29.92S
ANDREWS AFB    CLEAR     75  62  64 SW6       29.91S
LEESBURG*      CLEAR     77  64  65 SW6       29.93S
MANASSAS*      CLEAR     73  66  78 CALM      29.92S
GAITHERSBURG*  CLEAR     79  57  47 SW3       29.97R

$$

MDZ006>007-011-014-030200-
BALTIMORE METRO

CITY           SKY/WX    TMP DP  RH WIND       PRES   REMARKS
BWI AIRPORT    PTCLDY    78  60  53 SW3       29.90R
MD SCIENCE CTR   N/A     82  58  43 MISG      29.91R
MARTIN STATE   CLEAR     82  64  54 S5        29.91S
ANNAPOLIS      CLEAR     79  59  50 SW3       29.90S
FORT MEADE*    CLEAR     70  64  83 CALM      29.93S

$$

MDZ012-015-019>023-030200-
MARYLAND EASTERN SHORE

CITY           SKY/WX    TMP DP  RH WIND       PRES   REMARKS
OCEAN CITY     MOCLDY    78  72  81 S3        29.91S
SALISBURY      MOCLDY    76  71  85 CALM      29.91S
BAY BRIDGE AP*   N/A     81  59  47 SW5       29.91S
CAMBRIDGE*     PTCLDY    73  66  78 CALM      29.90F
EASTON*        PTCLDY    77  64  65 CALM      29.95R

$$

MDZ017>025-030200-
SOUTHERN MARYLAND

CITY           SKY/WX    TMP DP  RH WIND       PRES   REMARKS
PATUXENT RIVER PTCLDY    70  64  81 SW3       29.91R
ST INIGOES     PTCLDY    73  65  75 CALM      29.91R
LEONARDTOWN*   PTCLDY    72  61  68 CALM      29.94R

$$

MDZ003>005-030200-
NORTH CENTRAL MARYLAND

CITY           SKY/WX    TMP DP  RH WIND       PRES   REMARKS
FREDERICK*     CLEAR     75  64  69 S6        29.94
HAGERSTOWN APT CLEAR     80  58  46 S9        29.90F
WESTMINSTER*   CLEAR     79  61  53 CALM      29.93S

$$

MDZ501>502-030200-
WESTERN MARYLAND

CITY           SKY/WX    TMP DP  RH WIND       PRES   REMARKS
OAKLAND*       CLEAR     66 N/A N/A SW7       30.03F
CUMBERLAND*    CLEAR     79  57  47 S3        29.95S

$$

VAZ025>031-030200-
SHENANDOAH VALLEY

CITY           SKY/WX    TMP DP  RH WIND       PRES   REMARKS
WINCHESTER*    CLEAR     77  63  61 S5        29.92F
FRONT ROYAL*   FAIR      72  63  73 S3        29.92S
LURAY*         FAIR      75  64  69 S3        29.95S
NEW MARKET*    FAIR      69  63  82 CALM      29.94R
STAUNTON*      CLEAR     75  58  56 CALM      29.99R
WAYNESBORO*    FAIR      72  58  61 W5        29.99R

$$

WVZ021-048>050-054>055-030200-
EASTERN WEST VIRGINIA PANHANDLE

CITY           SKY/WX    TMP DP  RH WIND       PRES   REMARKS
MARTINSBURG    CLEAR     75  60  59 S6        29.91S
PETERSBURG*    CLEAR     72  72 100 CALM      29.95R

$$

VAZ036>039-050-030200-
CENTRAL FOOTHILLS

CITY           SKY/WX    TMP DP  RH WIND       PRES   REMARKS
CHARLOTTESVILL CLEAR     72  64  76 CALM      29.94S
CULPEPER*      CLEAR     69  64  84 CALM      29.93S
ORANGE*        CLEAR     70  64  83 CALM      29.95R
GORDONSVILLE*  FAIR      68  66  94 CALM      29.94R
WARRENTON*     FAIR      68  65  93 CALM      29.92S

$$

VAZ055>057-030200-
NORTH AND CENTRAL PIEDMONT

CITY           SKY/WX    TMP DP  RH WIND       PRES   REMARKS
FREDERICKSBRG* CLEAR     74  67  77 CALM      29.92R
STAFFORD*      CLEAR     70  65  84 CALM      29.97R

$$

NCZ024-NYZ072-PAZ021-071-VAZ022-071-030200-
OTHER REGIONAL OBSERVATIONS

CITY           SKY/WX    TMP DP  RH WIND       PRES   REMARKS
NEW YORK CITY  CLEAR     79  61  53 CALM      29.91R
PHILADELPHIA   PTCLDY    83  56  39 SW9       29.91R
PITTSBURGH     PTCLDY    80  61  52 SW9       29.89R
ROANOKE        CLEAR     76  57  51 E5        29.99R
RICHMOND       PTCLDY    77  63  61 CALM      29.93R
RALEIGH        PTCLDY    78  58  49 CALM      29.93S

$$

ANZ530>537-030200-
MARINE OBSERVATIONS

STATION/POSITION TIME  TEMP    WIND        PRES
                       AIR SEA DIR/SP/G
                 (UTC) (F)     (DEG/KT/KT) (MB)
THOMAS PT LIGHT  0000   82 81  260/ 11/ 12 1013.0R
BALT KEY BRIDGE  0000   82     190/  7/  8 1012.1R
COVE POINT       0000   83     270/  4/  6 1013.3F
LEWISETTA        0000   84 85  210/  1/  2 1012.5S
SOLOMONS ISLAND  0000      85                N/A
PINEY POINT      0000          270/  2/  3   N/A

$$




USA.gov is the U.S. government's official web portal to all federal, state and local government web resources and services.